Cosmos 2360 Rocket - Orbit

View from above orbital plane
View from above orbital plane
View from above satellite
View from above satellite

Ground track
Ground track

The orbit data is extracted from the following two-line orbital elements,

1 25407U 98045B   13144.87622712  .00000372  00000-0  21446-3 0  1974
2 25407 071.0132 280.2913 0009646 302.0326 202.7249 14.15603973766116
Epoch (UTC): 24 May 2013 21:01:46
Eccentricity: 0.0009646
inclination: 71.0132°
perigee height: 833 km
apogee height: 847 km
right ascension of ascending node: 280.2913°
argument of perigee: 302.0326°
revolutions per day: 14.15603973
mean anomaly at epoch: 202.7249°
orbit number at epoch: 76611

The dashed part of the orbit path shows where the satellite is in the earth's shadow,  

Developed and maintained by Chris Peat, Heavens-Above GmbH. Please read the updated FAQ before sending e-mail. Imprint. DLR